This demonstration page uses our WeatherBlox Daily Observations layout. Learn more.

Hourly Observations for January 19, 2017

Temp ( °F °C ) Dew Point ( °F °C ) Humidity (%) Winds ( mph kmh ) Pressure ( in mb ) Visibility ( mi km ) Precip ( " mm )
12:54 am 00:54 Clear 36 2.2 32 0 86 86 S 12 19 29.85 1011 10 16.0934 0 0
1:54 am 01:54 Clear 35 1.7 32 0 89 89 SSE 10 17 29.84 1011 10 16.0934 0 0
2:54 am 02:54 Partly Cloudy 36 2.2 33 0.6 89 89 SSE 8 13 29.84 1011 10 16.0934 0 0
3:54 am 03:54 Partly Cloudy 35 1.7 33 0.6 93 93 SSE 12 19 29.81 1010 10 16.0934 0 0
4:54 am 04:54 Clear 34 1.1 32 0 92 92 SSW 3 6 29.8 1009 10 16.0934 0 0
5:54 am 05:54 Partly Cloudy 34 1.1 32 0 92 92 Calm 29.8 1009 9 14.48406 0 0
6:31 am 06:31 Mostly Cloudy with Mist and Fog 34 1 30 -1 87 87 Calm 29.83 1010 6 9.65604 0 0
6:54 am 06:54 Cloudy 34 1.1 33 0.6 97 97 Calm 29.81 1009 9 14.48406 0 0
7:03 am 07:03 Cloudy 36 2 34 1 93 93 Calm 29.8 1009 9 14.48406 0 0
7:54 am 07:54 Cloudy with Mist and Fog 34 1.1 32 0 92 92 Calm 29.8 1009 4 6.43736 0 0
8:08 am 08:08 Cloudy with Mist and Fog 36 2 34 1 93 93 Calm 29.8 1009 2 3.21868 0 0
8:34 am 08:34 Cloudy with Mist and Fog 36 2 34 1 93 93 Calm 29.8 1009 1 1.60934 0 0
8:54 am 08:54 Cloudy with Mist and Fog 35 1.7 34 1.1 96 96 Calm 29.8 1009 1 1.60934 0 0
9:05 am 09:05 Cloudy with Mist and Fog 36 2.2 35 1.7 97 97 Calm 29.8 1009 0.75 1.207005 0 0
9:54 am 09:54 Cloudy with Fog 37 2.8 37 2.8 100 100 ESE 6 9 29.78 1009 0.5 0.80467 0 0
10:54 am 10:54 Cloudy with Mist and Fog 40 4.4 39 3.9 97 97 ESE 5 7 29.78 1009 0.75 1.207005 0 0
11:15 am 11:15 Cloudy with Mist and Fog 41 5 40 4.4 96 96 SE 6 9 29.8 1009 2 3.21868 0 0
11:40 am 11:40 Cloudy with Mist and Fog 43 6 41 5 93 93 SSE 8 13 29.77 1008 3 4.82802 0 0
11:54 am 11:54 Cloudy with Mist and Fog 42 5.6 41 5 96 96 SE 8 13 29.75 1007 3 4.82802 0 0
12:22 pm 12:22 Cloudy with Mist and Fog 43 6 43 6 100 100 SE 8 13 29.74 1007 4 6.43736 0 0
12:54 pm 12:54 Cloudy 44 6.7 41 5 89 89 S 14 22 29.72 1006 10 16.0934 0 0
1:54 pm 13:54 Cloudy with Mist and Fog 43 6.1 41 5 93 93 S 12 19 29.7 1006 6 9.65604 0 0
2:54 pm 14:54 Cloudy with Mist and Fog 42 5.6 41 5 96 96 S 8 13 29.68 1005 4 6.43736 0 0
3:08 pm 15:08 Cloudy with Mist and Fog 43 6 41 5 93 93 S 8 13 29.68 1005 2.5 4.02335 0 0
3:28 pm 15:28 Cloudy with Mist and Fog 43 6 41 5 93 93 S 6 9 29.68 1005 2.5 4.02335 0 0
3:40 pm 15:40 Cloudy with Mist and Fog 43 6 41 5 93 93 S 6 9 29.68 1005 2.5 4.02335 0 0
3:54 pm 15:54 Cloudy with Mist and Fog 43 6 41 5 93 93 SSW 3 6 29.68 1005 2.5 4.02335 0 0
4:38 pm 16:38 Cloudy with Mist and Fog 43 6 41 5 93 93 Calm 29.68 1005 2.5 4.02335 0 0
4:54 pm 16:54 Cloudy with Mist and Fog 42 5.6 42 5.6 100 100 Calm 29.68 1005 1.25 2.011675 0 0
5:15 pm 17:15 Cloudy with Mist and Fog 42 5.6 41 5 96 96 ESE 3 6 29.68 1005 0.75 1.207005 0 0
5:29 pm 17:29 Cloudy with Mist and Fog 41 5 41 5 100 100 ESE 5 7 29.68 1005 1.5 2.41401 0 0
5:52 pm 17:52 Cloudy with Mist and Fog 41 5 41 5 100 100 SE 3 6 29.68 1005 1.5 2.41401 0 0
5:54 pm 17:54 Cloudy with Mist and Fog 41 5 41 5 100 100 SE 3 6 29.67 1005 1.5 2.41401 0 0
5:57 pm 17:57 Cloudy with Mist and Fog 41 5 41 5 100 100 SE 3 6 29.68 1005 2.5 4.02335 0 0
6:18 pm 18:18 Cloudy with Mist and Fog 42 5.6 41 5 96 96 Calm 29.68 1005 2.5 4.02335 0 0
6:26 pm 18:26 Cloudy with Mist and Fog 41 5 41 5 100 100 Calm 29.68 1005 1.25 2.011675 0 0
6:29 pm 18:29 Cloudy with Mist and Fog 41 5 41 5 100 100 Calm 29.68 1005 1 1.60934 0 0
6:54 pm 18:54 Mostly Cloudy with Fog 41 5 41 5 100 100 Calm 29.68 1005 0.5 0.80467 0 0
7:54 pm 19:54 Mostly Cloudy with Mist and Fog 39 3.9 39 3.9 100 100 NE 3 6 29.69 1005 0.75 1.207005 0 0
8:16 pm 20:16 Cloudy with Mist and Fog 39 4 39 4 100 100 E 5 7 29.68 1005 1 1.60934 0 0
8:32 pm 20:32 Cloudy with Mist and Fog 41 5 39 4 93 93 E 6 9 29.68 1005 3 4.82802 0 0
8:45 pm 20:45 Cloudy with Mist and Fog 41 5 40 4.4 96 96 E 7 11 29.68 1005 1 1.60934 0 0
8:54 pm 20:54 Cloudy with Mist and Fog 41 5 40 4.4 96 96 E 9 15 29.67 1005 1 1.60934 0 0
9:54 pm 21:54 Cloudy with Mist and Fog 40 4.4 40 4.4 100 100 SE 7 11 29.65 1004 1 1.60934 0 0
9:56 pm 21:56 Cloudy with Mist and Fog 39 4 39 4 100 100 SE 7 11 29.65 1004 4 6.43736 0 0
10:10 pm 22:10 Cloudy with Mist and Fog 41 5 40 4.4 96 96 SE 8 13 29.65 1004 5 8.0467 0 0
10:54 pm 22:54 Cloudy 41 5 40 4.4 96 96 SE 6 9 29.63 1003 7 11.26538 0 0
11:54 pm 23:54 Cloudy with Mist and Fog 41 5 40 4.4 96 96 S 3 6 29.62 1003 6 9.65604 0 0

Powered by AerisWeather